Location: Izdebno
(52.6670°N, 16.2170°E)
Time: 12:17:07
(UTC+02:00)

A-11 Canister half - Pass Details

Date: 24 February 2024
Orbit: 1525 x 1683 km, 47.3° (Epoch: 24 April)

Event Time Altitude Azimuth Distance (km) Brightness Sun altitude
Rises 19:40:40 0° 197° (SSW) 4,768 11.6 -21.4°
Reaches altitude 10° 19:44:31 10° 185° (S) 3,761 10.9 -22.0°
Enters shadow 19:50:28 24° 146° (SE) 2,804 9.9 -22.8°
